Time,TemperatureF,DewpointF,PressureIn,WindDirection,WindDirectionDegrees,WindSpeedMPH,WindSpeedGustMPH,Humidity,HourlyPrecipIn,Conditions,Clouds,dailyrainin,SoftwareType,DateUTC
2013-09-10 00:01:00,70.8,66.7,29.95,North,0,0.0,0.0,87,0.00,,,0.02,WUHU216HW,2013-09-10 05:01:00,
2013-09-10 00:48:00,70.3,66.2,29.96,North,0,0.0,0.0,87,0.00,,,0.00,WUHU216HW,2013-09-10 05:48:00,
2013-09-10 01:03:00,70.3,66.2,29.97,North,0,0.0,0.0,87,0.00,,,0.00,WUHU216HW,2013-09-10 06:03:00,
2013-09-10 02:01:00,70.1,66.4,29.96,North,0,0.0,0.0,88,0.00,,,0.00,WUHU216HW,2013-09-10 07:01:00,
2013-09-10 02:06:00,70.1,66.4,29.96,North,0,0.0,0.0,88,0.00,,,0.00,WUHU216HW,2013-09-10 07:06:00,
2013-09-10 03:15:00,69.8,66.0,29.97,North,0,0.0,0.0,88,0.00,,,0.00,WUHU216HW,2013-09-10 08:15:00,
2013-09-10 03:20:00,69.6,65.8,29.96,North,0,0.0,0.0,88,0.00,,,0.00,WUHU216HW,2013-09-10 08:20:00,
2013-09-10 03:25:00,69.6,65.8,29.96,North,0,0.0,0.0,88,0.00,,,0.00,WUHU216HW,2013-09-10 08:25:00,
2013-09-10 03:38:00,69.9,66.2,29.96,North,0,0.0,0.0,88,0.00,,,0.00,WUHU216HW,2013-09-10 08:38:00,
2013-09-10 04:04:00,70.1,66.4,29.96,North,0,0.0,0.0,88,0.00,,,0.00,WUHU216HW,2013-09-10 09:04:00,
2013-09-10 04:09:00,70.1,66.4,29.96,North,0,0.0,0.0,88,0.00,,,0.00,WUHU216HW,2013-09-10 09:09:00,
2013-09-10 04:46:00,70.7,66.9,29.97,North,0,0.0,0.0,89,0.00,,,0.00,WUHU216HW,2013-09-10 09:46:00,
2013-09-10 05:15:00,71.0,67.6,29.97,North,0,0.0,0.0,89,0.00,,,0.00,WUHU216HW,2013-09-10 10:15:00,
2013-09-10 05:20:00,71.0,67.6,29.97,North,0,0.0,0.0,89,0.00,,,0.00,WUHU216HW,2013-09-10 10:20:00,
2013-09-10 05:38:00,71.2,67.8,29.97,North,0,0.0,0.0,89,0.00,,,0.00,WUHU216HW,2013-09-10 10:38:00,
2013-09-10 06:24:00,70.5,67.1,29.97,North,0,0.0,0.0,89,0.00,,,0.00,WUHU216HW,2013-09-10 11:24:00,
2013-09-10 06:48:00,70.3,66.9,29.98,North,0,0.0,0.0,89,0.00,,,0.00,WUHU216HW,2013-09-10 11:48:00,
2013-09-10 06:53:00,70.3,66.9,29.98,North,0,0.0,0.0,89,0.00,,,0.00,WUHU216HW,2013-09-10 11:53:00,
2013-09-10 07:43:00,70.8,67.4,30.00,North,0,0.0,0.0,89,0.00,,,0.00,WUHU216HW,2013-09-10 12:43:00,
2013-09-10 08:22:00,71.4,68.0,30.00,North,0,0.0,0.0,89,0.00,,,0.00,WUHU216HW,2013-09-10 13:22:00,
2013-09-10 08:38:00,71.9,68.5,30.01,North,0,0.0,0.0,89,0.00,,,0.00,WUHU216HW,2013-09-10 13:38:00,
2013-09-10 08:43:00,71.9,68.5,30.01,North,0,0.0,0.0,89,0.00,,,0.00,WUHU216HW,2013-09-10 13:43:00,
2013-09-10 09:13:00,72.6,69.2,30.02,North,0,0.0,0.0,89,0.00,,,0.00,WUHU216HW,2013-09-10 14:13:00,
2013-09-10 10:09:00,78.2,71.6,30.03,North,0,0.0,0.0,80,0.00,,,0.00,WUHU216HW,2013-09-10 15:09:00,
2013-09-10 10:14:00,78.2,71.6,30.03,North,0,0.0,0.0,80,0.00,,,0.00,WUHU216HW,2013-09-10 15:14:00,
2013-09-10 10:39:00,80.4,72.1,30.03,North,0,0.0,0.0,76,0.00,,,0.00,WUHU216HW,2013-09-10 15:39:00,
2013-09-10 10:44:00,80.4,72.1,30.03,North,0,0.0,0.0,76,0.00,,,0.00,WUHU216HW,2013-09-10 15:44:00,
2013-09-10 11:00:00,81.8,71.5,30.03,North,0,0.0,0.0,71,0.00,,,0.00,WUHU216HW,2013-09-10 16:00:00,
2013-09-10 11:29:00,84.7,71.2,30.04,North,0,0.0,0.0,64,0.00,,,0.00,WUHU216HW,2013-09-10 16:29:00,
2013-09-10 12:45:00,87.6,70.5,30.03,North,0,0.0,0.0,59,0.00,,,0.00,WUHU216HW,2013-09-10 17:45:00,
2013-09-10 12:50:00,87.6,70.5,30.03,North,0,0.0,0.0,59,0.00,,,0.00,WUHU216HW,2013-09-10 17:50:00,
2013-09-10 13:05:00,86.7,70.7,30.03,North,0,0.0,0.0,59,0.00,,,0.00,WUHU216HW,2013-09-10 18:05:00,
2013-09-10 14:32:00,91.9,70.6,30.00,North,0,0.0,0.0,50,0.00,,,0.00,WUHU216HW,2013-09-10 19:32:00,
2013-09-10 14:37:00,91.9,70.6,30.00,North,0,0.0,0.0,50,0.00,,,0.00,WUHU216HW,2013-09-10 19:37:00,
2013-09-10 15:05:00,94.4,69.7,29.99,North,0,0.0,0.0,45,0.00,,,0.00,WUHU216HW,2013-09-10 20:05:00,
2013-09-10 15:21:00,96.0,69.8,29.97,North,0,0.0,0.0,43,0.00,,,0.00,WUHU216HW,2013-09-10 20:21:00,
2013-09-10 15:26:00,96.0,69.8,29.97,North,0,0.0,0.0,43,0.00,,,0.00,WUHU216HW,2013-09-10 20:26:00,
2013-09-10 15:31:00,97.1,70.1,29.97,North,0,0.0,0.0,42,0.00,,,0.00,WUHU216HW,2013-09-10 20:31:00,
2013-09-10 15:36:00,97.1,70.1,29.97,North,0,0.0,0.0,42,0.00,,,0.00,WUHU216HW,2013-09-10 20:36:00,
2013-09-10 15:49:00,95.0,68.9,29.96,North,0,0.0,0.0,43,0.00,,,0.00,WUHU216HW,2013-09-10 20:49:00,
2013-09-10 16:14:00,95.7,68.2,29.96,North,0,0.0,0.0,41,0.00,,,0.00,WUHU216HW,2013-09-10 21:14:00,
2013-09-10 16:19:00,96.9,67.8,29.95,North,0,0.0,0.0,39,0.00,,,0.00,WUHU216HW,2013-09-10 21:19:00,
2013-09-10 16:24:00,96.9,67.8,29.95,North,0,0.0,0.0,39,0.00,,,0.00,WUHU216HW,2013-09-10 21:24:00,
2013-09-10 16:47:00,92.8,70.8,29.97,North,0,0.0,0.0,49,0.00,,,0.00,WUHU216HW,2013-09-10 21:47:00,
2013-09-10 17:02:00,89.2,68.2,29.97,North,0,0.0,0.0,50,0.00,,,0.00,WUHU216HW,2013-09-10 22:02:00,
2013-09-10 17:07:00,89.2,68.2,29.97,North,0,0.0,0.0,50,0.00,,,0.00,WUHU216HW,2013-09-10 22:07:00,
2013-09-10 17:29:00,89.2,68.7,29.97,North,0,0.0,0.0,51,0.00,,,0.00,WUHU216HW,2013-09-10 22:29:00,
2013-09-10 17:49:00,84.3,68.0,29.98,North,0,0.0,0.0,58,0.00,,,0.00,WUHU216HW,2013-09-10 22:49:00,
2013-09-10 18:38:00,81.1,68.2,29.99,North,0,0.0,0.0,65,0.00,,,0.00,WUHU216HW,2013-09-10 23:38:00,
2013-09-10 18:59:00,80.0,68.5,30.00,North,0,0.0,0.0,68,0.00,,,0.00,WUHU216HW,2013-09-10 23:59:00,
2013-09-10 20:06:00,76.6,68.8,29.99,North,0,0.0,0.0,77,0.00,,,0.00,WUHU216HW,2013-09-11 01:06:00,
2013-09-10 20:18:00,76.2,68.9,29.99,North,0,0.0,0.0,78,0.00,,,0.00,WUHU216HW,2013-09-11 01:18:00,
2013-09-10 20:47:00,75.5,68.6,30.00,North,0,0.0,0.0,79,0.00,,,0.00,WUHU216HW,2013-09-11 01:47:00,
2013-09-10 21:02:00,75.0,68.5,30.01,North,0,0.0,0.0,80,0.00,,,0.00,WUHU216HW,2013-09-11 02:02:00,
2013-09-10 21:07:00,75.0,68.5,30.01,North,0,0.0,0.0,80,0.00,,,0.00,WUHU216HW,2013-09-11 02:07:00,
2013-09-10 21:15:00,74.4,68.3,30.01,North,0,0.0,0.0,81,0.00,,,0.00,WUHU216HW,2013-09-11 02:15:00,
2013-09-10 21:20:00,74.4,68.3,30.01,North,0,0.0,0.0,81,0.00,,,0.00,WUHU216HW,2013-09-11 02:20:00,
2013-09-10 21:46:00,73.4,67.2,30.02,North,0,0.0,0.0,81,0.00,,,0.00,WUHU216HW,2013-09-11 02:46:00,
2013-09-10 22:18:00,72.5,67.0,30.02,North,0,0.0,0.0,83,0.00,,,0.00,WUHU216HW,2013-09-11 03:18:00,
2013-09-10 23:14:00,71.7,66.6,30.03,North,0,0.0,0.0,84,0.00,,,0.00,WUHU216HW,2013-09-11 04:14:00,
2013-09-10 23:19:00,71.7,66.6,30.03,North,0,0.0,0.0,84,0.00,,,0.00,WUHU216HW,2013-09-11 04:19:00,
2013-09-10 23:35:00,72.1,67.3,30.03,North,0,0.0,0.0,85,0.00,,,0.00,WUHU216HW,2013-09-11 04:35:00,
2013-09-10 23:40:00,72.1,67.3,30.03,North,0,0.0,0.0,85,0.00,,,0.00,WUHU216HW,2013-09-11 04:40:00,